Location: Crab Orchard
(37.7292°N, 88.8042°W)
Time: 06:10:41
(UTC+00:00)

AQUARIUS - Pass Details

Date: 08 December 2019
Orbit: 650 x 653 km, 98.0° (Epoch: 17 January)

Event Time Altitude Azimuth Distance (km) Brightness Sun altitude
Rises 23:04:30 0° 153° (SSE) 2,960 7.5 -5.8°
Reaches altitude 10° 23:06:45 10° 148° (SSE) 2,054 6.7 -6.2°
Maximum altitude 23:11:04 50° 73° (ENE) 832 4.3 -7.0°
Drops below altitude 10° 23:15:26 10° 359° (N) 2,067 6.5 -7.8°
Sets 23:17:42 0° 354° (N) 2,982 7.4 -8.2°
